Location: Poughquag
(41.6090°N, 73.6820°W)
Time: 18:16:18
(UTC-04:00)

Vanguard 1 - Pass Details

Date: 31 May 2020
Orbit: 650 x 3832 km, 34.2° (Epoch: 19 September)

Event Time Altitude Azimuth Distance (km) Brightness Sun altitude
Exits shadow 03:32:43 - 178° (S) 4,958 13.2 -16.4°
Reaches altitude 10° 03:34:34 10° 171° (S) 4,774 13.2 -16.2°
Maximum altitude 03:44:29 22° 128° (SE) 4,807 13.6 -15.0°
Drops below altitude 10° 03:57:47 10° 87° (E) 6,629 15.0 -13.3°
Sets 04:05:21 0° 76° (ENE) 7,913 15.8 -12.3°
